Regional Weather Roundup
Issued by NWS Lake Charles, LA

Home | Current Version | Previous Version | Text Only | Print | Product List | Glossary On
Versions: 1 2 3 4 5 6 7 8 9 10 11 12 13 14 15 16 17 18 19 20 21 22 23 24 25 26 27 28
000
ASUS44 KLCH 202210
RWRLCH
REGIONAL WEATHER ROUNDUP
NATIONAL WEATHER SERVICE LAKE CHARLES LA
400 PM CST MON NOV 20 2017

Note: "fair" indicates few or no clouds below 12,000 feet with no
significant weather and/or obstructions to visibility.


ACROSS SOUTHEAST TEXAS

CITY           SKY/WX    TMP DP  RH WIND       PRES   REMARKS
BEAUMONT       MOSUNNY   60  38  43 E9        30.10F
BEAUMONT CITY  FAIR      60  35  39 SE5       30.11S
ORANGE         MOCLDY    59  35  39 SE5       30.13F
JASPER         SUNNY     62  34  35 CALM      30.12F
$$

ACROSS CENTRAL LOUISIANA

CITY           SKY/WX    TMP DP  RH WIND       PRES   REMARKS
LEESVILLE      CLOUDY    60  30  32 S7        30.09F
FULLERTON      FAIR      60  35  39 VRB3      30.08S
ALEXANDRIA INT SUNNY     61  28  28 CALM      30.10F
ESLER FIELD    SUNNY     60  27  28 CALM      30.11F
DERIDDER       FAIR      59  29  31 CALM      30.13S
OAKDALE        CLOUDY    57  39  51 CALM      30.12F
OPELOUSAS      FAIR      58  34  41 CALM      30.12F
$$

ACROSS SOUTHWEST AND SOUTH CENTRAL LOUISIANA

CITY           SKY/WX    TMP DP  RH WIND       PRES   REMARKS
SULPHUR        CLOUDY    58  32  36 S6        30.13F
LAKE CHARLES   MOSUNNY   58  35  42 S5        30.12F
CHENNAULT INT  MOSUNNY   59  32  36 SE5       30.12F
CAMERON PHI    CLEAR     59  32  36 CALM      30.13F
DEQUINCY       FAIR      59  32  35 CALM      30.12F
JENNINGS       FAIR      58  30  33 CALM      30.13S
LAFAYETTE      MOSUNNY   60  34  37 S3        30.12F
NEW IBERIA     MOSUNNY   59  36  42 SW7       30.13F
ABBEVILLE      FAIR      58  38  47 S6        30.13S
PATTERSON      MOSUNNY   61  46  57 W7        30.13F
SALT POINT       N/A      1  32 100 VRB3      30.12F
$$

SELECTED SITES ACROSS THE REGION

CITY           SKY/WX    TMP DP  RH WIND       PRES   REMARKS
HOUSTON BUSH   MOSUNNY   66  46  48 SE12      30.07F
HOUSTON HOBBY  MOSUNNY   65  49  56 E9        30.07F
GALVESTON      CLOUDY    66  51  58 E9        30.09F
COLLEGE STAT   SUNNY     68  44  42 SW10      30.03F
CONROE         SUNNY     65  43  44 S10       30.06F
HUNTSVILLE     SUNNY     65  42  43 S7        30.05F
LUFKIN         SUNNY     62  36  37 SW10      30.08F
SHREVEPORT     MOSUNNY   61  30  31 S10       30.07F
MONROE         SUNNY     57  30  35 S6        30.12F
NATCHEZ MS     SUNNY     57  30  35 CALM      30.12F
BATON ROUGE    CLOUDY    59  35  40 W5        30.12S
N.O. INTL ARPT PTSUNNY   60  41  49 NE5       30.13S
SLIDELL        SUNNY     59  34  39 CALM      30.13F
$$

MARINE REPORTS

STATION/POSITION TIME  SKY/WX   TEMP    WIND        PRES    VSBY
                                AIR SEA DIR/SP/G
                 (UTC)          (F)     (DEG/KT/KT) (MB)    (MI)
BUOY 30 S HIGH I 2050            62 71   90/  8/ 10 1019.5
WVE H/P(F/S)=  2/ 5

SEA RIM ST PARK  2200            60     120/  8/ 10 1019.9F
PORT ARTHUR      2148            59 67  140/  6/  7 1019.7F
SABINE PASS N    2148            59 66  130/  7/  9 1021.0F
TEXAS POINT      NOT AVBL
CALCASIEU PASS   2148            58 64  150/  4/  6 1018.8F
LK CHARLES BEACH 2148            58 70              1019.2F
MARSH ISLAND     2100            58                   N/A
FRESH WATER LOCK 2148            57 66  220/  3/  5 1020.3F
AMERADA PASS     2148            59 59  260/  2/  4 1020.0F
$$




USA.gov is the U.S. government's official web portal to all federal, state and local government web resources and services.